Date_and_time,latitude,longitude,wind_speed,RelWindDirFrom,WindDirFrom,air_pressure,air_temperature,relative_humidity,Temp,platform_speed_wrt_ground,air_pressure_at_mean_sea_level,platform_orientation
2019-07-19 23:40,50.630455,-96.9807666666667,12.4,20.9,249,976.78,23.0,42,24.11,0.0,1002.11,360.0
2019-07-19 23:50,50.630455,-96.9807666666667,10.9,18.0,265,976.84,22.9,43,24.08,0.0,1002.19,360.0
2019-07-20 00:00,50.630455,-96.980765,10.1,17.6,255,976.99,22.9,42,24.06,0.0,1002.32,270.0
2019-07-20 00:10,50.630455,-96.980765,10.1,17.2,261,977.05,23.2,41,24.05,0.0,1002.39,270.0
2019-07-20 00:20,50.6304533333333,-96.9807816666667,11.9,18.7,262,977.31,23.2,40,24.03,0.0,1002.66,270.0
2019-07-20 00:30,50.630455,-96.98076,8.4,13.6,258,977.48,23.0,42,23.98,0.0,1002.85,270.0
2019-07-20 00:40,50.6304616666667,-96.9807616666667,8.6,17.1,258,977.58,23.0,42,23.99,0.0,1002.95,270.0
2019-07-20 00:50,50.630445,-96.9807566666667,8.2,13.6,256,977.71,22.9,41,23.97,0.0,1003.07,270.0
2019-07-20 01:00,50.6304433333333,-96.9807566666667,9.4,14.6,253,977.86,22.6,41,23.94,0.0,1003.25,360.0
2019-07-20 01:10,50.6304416666667,-96.9807533333333,7.4,11.6,257,978.06,21.9,43,23.69,0.0,1003.51,360.0
2019-07-20 01:20,50.6304433333333,-96.980755,5.3,9.1,264,978.11,21.7,44,23.68,0.0,1003.58,360.0
2019-07-20 01:30,50.6304466666667,-96.980755,5.3,10.1,256,978.20,21.6,45,23.79,0.0,1003.69,360.0
2019-07-20 01:40,50.6304483333333,-96.9807566666667,3.4,5.7,260,978.19,21.5,46,23.82,0.0,1003.68,360.0
2019-07-20 01:50,50.6304483333333,-96.9807566666667,3.3,5.0,239,978.23,21.2,47,23.70,0.0,1003.73,360.0
2019-07-20 02:00,50.6304483333333,-96.9807583333333,3.5,5.0,229,978.34,20.9,49,23.55,0.0,1003.85,131.7
2019-07-20 02:10,50.6304733333333,-96.9807783333333,2.7,3.7,220,978.42,20.7,50,23.60,0.0,1003.94,131.7
2019-07-20 02:20,50.63046,-96.9807633333333,2.5,3.8,214,978.50,20.6,51,23.64,0.0,1004.03,131.7
2019-07-20 02:30,50.6304533333333,-96.9807616666667,3.5,5.4,226,978.69,20.5,53,23.47,0.0,1004.24,131.7
2019-07-20 02:40,50.6304533333333,-96.98076,3.9,5.7,237,978.83,20.3,53,23.55,0.0,1004.39,131.7
2019-07-20 02:50,50.6304533333333,-96.9807633333333,3.2,4.7,239,978.87,20.3,53,23.64,0.0,1004.45,131.7
2019-07-20 03:00,50.6304533333333,-96.9807633333333,3.2,4.3,235,979.06,20.2,54,23.67,0.0,1004.68,0.0
2019-07-20 03:10,50.630455,-96.98076,2.9,3.9,238,979.17,20.1,55,23.62,0.0,1004.80,0.0
2019-07-20 03:20,50.6304533333333,-96.98076,3.1,4.9,239,979.38,20.0,56,23.41,0.0,1005.03,0.0
2019-07-20 03:30,50.6304533333333,-96.98076,2.9,4.4,214,979.37,19.7,59,23.48,0.0,1005.03,0.0
2019-07-20 03:40,50.6304433333333,-96.9807533333333,3.2,4.3,221,979.49,19.6,61,23.49,0.0,1005.18,0.0
2019-07-20 03:50,50.6304533333333,-96.9807616666667,2.7,4.1,230,979.51,19.5,60,23.53,0.0,1005.21,0.0
2019-07-20 04:00,50.630455,-96.9807633333333,2.5,3.6,221,979.48,19.3,60,23.60,0.0,1005.20,345.5
2019-07-20 04:10,50.6304533333333,-96.9807566666667,4.7,7.3,233,979.52,19.5,57,23.59,0.0,1005.23,345.5
2019-07-20 04:20,50.630445,-96.9807533333333,4.6,6.4,230,979.44,19.5,57,23.56,0.0,1005.16,345.5
2019-07-20 04:30,50.6304816666667,-96.98076,4.7,6.2,196,979.37,19.3,61,23.54,0.0,1005.10,345.5
2019-07-20 04:40,50.6304533333333,-96.9807616666667,5.1,6.5,187,979.36,18.8,66,23.41,0.0,1005.11,345.5
2019-07-20 04:50,50.6304483333333,-96.9807716666667,3.5,5.0,205,979.36,18.6,67,23.27,0.0,1005.13,345.5
2019-07-20 05:00,50.63045,-96.9807666666667,3.0,4.3,220,979.39,18.6,66,23.25,0.0,1005.16,347.4
2019-07-20 05:10,50.6304483333333,-96.9807616666667,3.1,4.7,234,979.38,18.4,66,23.34,0.0,1005.17,347.4
2019-07-20 05:20,50.630445,-96.9807616666667,2.5,3.6,254,979.36,18.3,68,23.40,0.0,1005.16,347.4
2019-07-20 05:30,50.6304516666667,-96.980765,2.7,3.8,235,979.27,18.1,69,23.44,0.0,1005.09,347.4
2019-07-20 05:40,50.630455,-96.9807666666667,3.7,4.8,219,979.32,17.7,73,23.37,0.0,1005.17,347.4
2019-07-20 05:50,50.6304566666667,-96.98077,3.9,5.4,224,979.41,17.5,74,23.22,0.0,1005.27,347.4
2019-07-20 06:00,50.6304566666667,-96.98077,3.4,5.0,233,979.44,17.3,74,23.20,0.0,1005.30,0.0
2019-07-20 06:10,50.6304566666667,-96.9807683333333,4.0,5.9,238,979.52,17.2,73,23.31,0.0,1005.39,0.0
2019-07-20 06:20,50.63045,-96.9807666666667,4.6,6.0,231,979.69,17.0,74,23.37,0.0,1005.58,0.0
2019-07-20 06:30,50.63045,-96.980765,4.3,7.0,238,979.79,16.9,74,23.36,0.0,1005.71,0.0
2019-07-20 06:40,50.63045,-96.980765,4.1,5.7,249,979.84,16.7,74,23.29,0.0,1005.77,0.0
2019-07-20 06:50,50.63045,-96.9807666666667,3.9,5.3,238,979.87,16.6,74,23.18,0.0,1005.82,0.0
2019-07-20 07:00,50.6304483333333,-96.980765,4.3,5.6,228,979.91,16.2,77,23.08,0.0,1005.89,142.0
2019-07-20 07:10,50.63045,-96.9807666666667,4.4,6.1,235,980.02,16.0,78,23.08,0.0,1006.00,142.0
2019-07-20 07:20,50.63045,-96.980765,5.1,6.8,237,980.15,15.9,77,23.18,0.0,1006.16,142.0
2019-07-20 07:30,50.63045,-96.980765,4.9,7.3,248,980.23,16.0,76,23.16,0.0,1006.26,142.0
2019-07-20 07:40,50.63045,-96.9807666666667,4.4,6.5,259,980.22,16.3,74,23.15,0.0,1006.25,142.0
2019-07-20 07:50,50.63045,-96.9807666666667,5.2,7.5,243,980.45,16.2,75,23.18,0.0,1006.49,142.0
2019-07-20 08:00,50.6304516666667,-96.9807666666667,5.0,6.8,237,980.50,15.8,77,23.14,0.0,1006.56,0.0
2019-07-20 08:10,50.6304516666667,-96.9807666666667,4.2,6.2,238,980.33,15.7,77,23.10,0.0,1006.40,0.0
2019-07-20 08:20,50.6304516666667,-96.9807666666667,5.8,7.6,226,980.57,15.6,79,23.11,0.0,1006.65,0.0
2019-07-20 08:30,50.6304516666667,-96.9807666666667,5.9,8.9,227,980.73,15.5,81,23.13,0.0,1006.83,0.0
2019-07-20 08:40,50.6304616666667,-96.9807833333333,6.3,8.5,228,980.92,15.5,81,23.14,0.0,1007.03,0.0
2019-07-20 08:50,50.630455,-96.98077,5.4,8.5,243,980.82,15.6,81,23.14,0.0,1006.95,0.0
2019-07-20 09:00,50.6304533333333,-96.9807633333333,4.2,6.8,267,980.50,15.7,81,23.13,0.0,1006.62,0.0
2019-07-20 09:10,50.6304533333333,-96.9807633333333,4.7,6.7,247,980.56,15.6,81,23.11,0.0,1006.69,0.0
2019-07-20 09:20,50.630415,-96.9807566666667,5.0,6.3,238,980.59,15.4,83,23.10,0.0,1006.73,0.0
2019-07-20 09:30,50.6304383333333,-96.9807583333333,4.8,6.5,233,980.74,15.4,84,23.10,0.0,1006.87,0.0
2019-07-20 09:40,50.630445,-96.98075,4.5,7.0,239,980.88,15.6,83,23.08,0.0,1007.01,0.0
2019-07-20 09:50,50.6304566666667,-96.980765,5.1,6.9,220,980.95,15.6,85,23.07,0.0,1007.09,0.0
2019-07-20 10:00,50.630455,-96.980765,4.9,6.7,227,981.05,15.6,85,23.06,0.0,1007.20,38.0
2019-07-20 10:10,50.63046,-96.9807633333333,4.3,5.9,233,981.24,15.6,86,23.04,0.0,1007.40,38.0
2019-07-20 10:20,50.6304433333333,-96.9807516666667,5.2,8.2,224,981.42,15.6,86,23.01,0.0,1007.60,38.0
2019-07-20 10:30,50.63045,-96.9807566666667,6.4,9.3,218,981.70,15.6,88,22.98,0.0,1007.88,38.0
2019-07-20 10:40,50.63045,-96.98076,6.6,8.9,221,981.94,15.4,88,22.98,0.0,1008.13,38.0
2019-07-20 10:50,50.6304516666667,-96.9807566666667,6.6,8.8,218,982.03,15.3,88,22.98,0.0,1008.23,38.0
2019-07-20 11:00,50.6304533333333,-96.9807916666667,5.4,7.8,225,982.17,15.4,89,22.96,0.0,1008.37,270.0
2019-07-20 11:10,50.630455,-96.9807616666667,5.1,7.0,225,982.45,15.4,90,22.95,0.0,1008.66,270.0
2019-07-20 11:20,50.630455,-96.98077,5.5,7.8,212,982.58,15.4,92,22.94,0.0,1008.80,270.0
2019-07-20 11:30,50.6304533333333,-96.9807683333333,5.6,8.0,221,982.60,15.5,91,22.94,0.0,1008.80,270.0
2019-07-20 11:40,50.630455,-96.9807683333333,5.5,7.2,235,982.57,15.5,90,22.92,0.0,1008.78,270.0
2019-07-20 11:50,50.6304533333333,-96.980765,5.1,7.3,248,982.48,15.6,90,22.91,0.0,1008.67,270.0
2019-07-20 12:00,50.6304533333333,-96.9807583333333,4.7,8.0,253,982.48,16.0,89,22.90,0.0,1008.66,90.0
2019-07-20 12:10,50.6304483333333,-96.9807616666667,5.3,8.0,254,982.50,16.4,87,22.89,0.0,1008.66,90.0
2019-07-20 12:20,50.6304483333333,-96.9807583333333,5.7,9.7,263,982.54,16.9,85,22.88,0.0,1008.69,90.0
2019-07-20 12:30,50.6304483333333,-96.9807616666667,6.1,8.9,252,982.64,17.1,85,22.88,0.0,1008.78,90.0
2019-07-20 12:40,50.6304483333333,-96.98076,6.1,9.4,259,982.59,17.3,84,22.86,0.0,1008.72,90.0
2019-07-20 12:50,50.63045,-96.9807616666667,5.7,8.7,279,982.57,17.5,84,22.86,0.0,1008.70,90.0
2019-07-20 13:00,50.6304483333333,-96.9807583333333,6.2,9.1,272,982.60,17.5,85,22.86,0.0,1008.72,131.7
2019-07-20 13:10,50.6304433333333,-96.980765,5.4,9.3,273,982.60,17.8,84,22.86,0.0,1008.71,131.7
2019-07-20 13:20,50.6304466666667,-96.9807666666667,6.6,10.8,275,982.59,17.9,83,22.86,0.0,1008.68,131.7
2019-07-20 13:30,50.6304483333333,-96.9807666666667,5.8,10.1,278,982.67,18.0,82,22.84,0.0,1008.76,131.7
2019-07-20 13:40,50.6304483333333,-96.9807666666667,5.9,10.7,280,982.62,18.4,80,22.84,0.0,1008.69,131.7
2019-07-20 13:50,50.6304466666667,-96.980765,7.0,9.8,280,982.62,18.4,79,22.84,0.0,1008.67,131.7
2019-07-20 14:00,50.6304466666667,-96.9807666666667,5.8,8.9,280,982.68,18.5,78,22.86,0.0,1008.71,106.8
2019-07-20 14:10,50.6304466666667,-96.9807666666667,5.8,10.2,269,982.63,18.8,77,22.88,0.0,1008.63,106.8
2019-07-20 14:20,50.6304466666667,-96.980765,5.3,11.0,279,982.69,19.0,75,22.90,0.0,1008.67,106.8
2019-07-20 14:30,50.6304466666667,-96.980765,6.9,11.6,290,982.77,19.3,73,22.92,0.0,1008.73,106.8
2019-07-20 14:40,50.6304466666667,-96.980765,7.0,11.7,290,982.85,19.3,71,22.95,0.0,1008.80,106.8
2019-07-20 14:50,50.6304466666667,-96.98077,6.5,9.4,295,983.05,19.4,69,22.95,0.0,1009.00,106.8
2019-07-20 15:00,50.63045,-96.98077,7.1,11.3,299,983.14,19.6,65,22.96,0.0,1009.08,270.0
2019-07-20 15:10,50.6304516666667,-96.9807666666667,6.3,12.5,294,983.27,19.8,64,22.98,0.0,1009.19,270.0
2019-07-20 15:20,50.63045,-96.980765,6.6,9.9,319,983.37,20.2,60,22.99,0.0,1009.27,270.0
2019-07-20 15:30,50.6304516666667,-96.980765,7.2,12.6,308,983.46,20.5,59,23.01,0.0,1009.34,270.0
2019-07-20 15:40,50.6304516666667,-96.9807633333333,6.8,10.5,308,983.73,20.2,60,23.02,0.0,1009.62,270.0
2019-07-20 15:50,50.6304616666667,-96.9807816666667,5.5,10.2,333,983.81,20.6,58,23.02,0.0,1009.69,270.0
2019-07-20 16:00,50.6304583333333,-96.9807733333333,8.2,12.9,328,983.84,20.9,56,23.03,0.0,1009.69,323.4
2019-07-20 16:10,50.6304483333333,-96.98075,7.6,10.6,326,984.01,20.7,58,23.07,0.0,1009.86,323.4
2019-07-20 16:20,50.6304533333333,-96.9807583333333,5.3,8.3,328,984.20,20.6,59,23.08,0.0,1010.05,323.4
2019-07-20 16:30,50.6304483333333,-96.9807633333333,7.4,10.3,3,984.19,20.8,60,23.10,0.0,1010.03,323.4
2019-07-20 16:40,50.6304516666667,-96.980765,7.4,10.5,0,984.24,20.9,60,23.11,0.0,1010.07,323.4
2019-07-20 16:50,50.6304516666667,-96.980765,15.4,21.2,18,984.24,20.3,71,23.11,0.0,1010.09,323.4
2019-07-20 17:00,50.6304683333333,-96.9808016666667,14.8,19.5,28,984.24,19.5,75,23.01,0.0,1010.12,310.6
2019-07-20 17:10,50.63045,-96.98077,10.4,12.9,31,984.30,19.5,73,23.03,0.0,1010.16,310.6
2019-07-20 17:20,50.6304516666667,-96.9807666666667,9.9,13.7,25,984.45,19.5,72,23.04,0.0,1010.30,310.6
2019-07-20 17:30,50.6304583333333,-96.9807683333333,12.9,16.0,17,984.48,19.6,76,22.89,0.0,1010.35,310.6
2019-07-20 17:40,50.6304566666667,-96.98077,18.0,23.2,2,984.47,19.1,77,22.92,0.0,1010.33,310.6
2019-07-20 17:50,50.6304566666667,-96.9807733333333,16.7,20.6,353,984.69,18.8,75,22.91,0.0,1010.56,310.6
2019-07-20 18:00,50.6304566666667,-96.9807516666667,10.5,17.8,338,985.01,18.1,77,22.88,0.0,1010.94,90.0
2019-07-20 18:10,50.6304516666667,-96.980765,7.9,10.8,340,985.09,17.7,79,22.91,0.0,1011.03,90.0
2019-07-20 18:20,50.6304466666667,-96.9807666666667,7.6,10.4,341,985.16,17.9,80,22.74,0.0,1011.09,90.0
2019-07-20 18:30,50.6304483333333,-96.980765,7.3,9.9,341,985.23,18.4,79,22.62,0.0,1011.13,90.0
2019-07-20 18:40,50.6304466666667,-96.9807666666667,9.0,13.3,353,985.22,19.2,79,22.75,0.0,1011.11,90.0
2019-07-20 18:50,50.6304516666667,-96.9807683333333,11.4,15.7,1,985.22,19.8,73,22.87,0.0,1011.13,90.0
2019-07-20 19:00,50.6304533333333,-96.980775,11.5,15.3,356,985.32,20.2,66,22.97,0.0,1011.21,360.0
2019-07-20 19:10,50.630455,-96.980775,13.4,16.7,3,985.44,20.4,65,23.07,0.0,1011.33,360.0
2019-07-20 19:20,50.6304566666667,-96.980775,11.8,14.9,1,985.59,20.5,64,23.11,0.0,1011.46,360.0
2019-07-20 19:30,50.6304466666667,-96.9807816666667,14.8,19.2,9,985.59,20.6,63,23.09,0.0,1011.48,360.0
2019-07-20 19:40,50.630455,-96.9807783333333,15.6,20.2,6,985.63,20.7,64,23.07,0.0,1011.54,360.0
2019-07-20 19:50,50.6304583333333,-96.98077,18.3,21.9,8,985.71,20.4,62,23.10,0.0,1011.66,360.0
2019-07-20 20:00,50.63046,-96.9807733333333,17.5,20.7,3,985.82,20.4,61,23.13,0.0,1011.79,116.7
2019-07-20 20:10,50.6304683333333,-96.9807916666667,17.1,20.4,7,985.88,20.5,61,23.08,0.0,1011.84,116.7
2019-07-20 20:20,50.6304583333333,-96.9807766666667,15.7,18.0,2,986.07,20.5,59,23.02,0.0,1012.01,116.7
2019-07-20 20:30,50.6304583333333,-96.9807766666667,15.0,18.5,4,986.19,20.8,59,23.00,0.0,1012.09,116.7
2019-07-20 20:40,50.6304516666667,-96.9807466666667,16.3,19.1,6,986.27,20.9,56,22.98,0.0,1012.14,116.7
2019-07-20 20:50,50.6304533333333,-96.9807616666667,16.5,21.4,7,986.42,21.0,57,22.97,0.0,1012.27,116.7
2019-07-20 21:00,50.630455,-96.9807666666667,15.8,19.1,6,986.60,21.0,57,22.95,0.0,1012.44,270.0
2019-07-20 21:10,50.6304566666667,-96.980775,15.9,18.3,7,986.72,21.1,57,22.96,0.0,1012.55,270.0
2019-07-20 21:20,50.6304516666667,-96.9807733333333,16.3,18.9,11,986.86,21.1,58,22.97,0.0,1012.70,270.0
2019-07-20 21:30,50.6304483333333,-96.980775,16.1,18.5,8,986.97,21.2,58,23.00,0.0,1012.80,270.0
2019-07-20 21:40,50.6304433333333,-96.9807783333333,16.3,19.5,9,987.03,21.3,58,23.01,0.0,1012.87,270.0
2019-07-20 21:50,50.6304416666667,-96.98077,17.0,20.3,8,987.00,21.3,58,23.02,0.0,1012.85,270.0
2019-07-20 22:00,50.6304466666667,-96.9807666666667,16.3,19.2,7,987.09,21.3,57,23.03,0.0,1012.94,131.7
2019-07-20 22:10,50.6304483333333,-96.9807666666667,16.2,19.2,10,987.14,21.3,58,22.99,0.0,1012.97,131.7
2019-07-20 22:20,50.6304516666667,-96.9807733333333,15.8,18.8,8,987.23,21.3,58,22.97,0.0,1013.06,131.7
2019-07-20 22:30,50.6304533333333,-96.98077,15.9,18.5,4,987.40,21.4,57,22.97,0.0,1013.23,131.7
2019-07-20 22:40,50.6304533333333,-96.98077,15.3,18.4,3,987.56,21.2,58,22.96,0.0,1013.39,131.7
2019-07-20 22:50,50.6304616666667,-96.980775,14.9,18.9,2,987.70,21.2,59,22.95,0.0,1013.54,131.7
2019-07-20 23:00,50.6304483333333,-96.9807633333333,15.2,17.8,1,987.75,21.2,56,22.94,0.0,1013.59,165.5
2019-07-20 23:10,50.6304783333333,-96.9807716666667,14.8,18.8,359,987.78,21.4,56,22.94,0.0,1013.60,165.5
2019-07-20 23:20,50.630445,-96.9807616666667,14.6,17.2,4,987.91,21.4,56,22.97,0.0,1013.74,165.5
2019-07-20 23:30,50.63045,-96.980765,15.8,18.3,10,987.95,21.3,57,22.96,0.0,1013.78,165.5
2019-07-20 23:40,50.63045,-96.9807666666667,15.4,17.8,6,988.06,21.4,56,22.97,0.0,1013.88,165.5
2019-07-20 23:50,50.6304516666667,-96.980765,15.7,18.1,8,988.17,21.2,57,22.96,0.0,1014.01,165.5
